CAPE
0 0 0 0 0 0 0 0 0 0 0 0 0 0 0 0 0 0 0 0 0 0 0 0 0 0 0 0 0 0 0 0 0 0 0 0 0 0 0 0 0 0 0 0
0 0 0 0 0 0 0 0 0 0 0 0 0 0 0 0 0 0 0 0 0 0 0 0 0 0 0 0 0 0 0 0 0 0 0 0 0 0 0 0 0 0 0 0
0 0 0 0 0 0 0 0 0 0 0 0 0 0 0 0 0 0 0 0 0 0 0 0 0 0 0 0 0 0 0 0 0 0 0 0 0 0 0 0 0 0 0 0
0 0 0 0 0 0 0 0 0 0 0 0 0 0 0 0 0 0 0 0 0 0 0 0 0 0 0 0 0 0 0 0 0 0 0 0 0 0 0 0 0 0 0 0
0 0 0 0 0 0 0 0 0 0 0 0 0 0 0 0 0 0 0 0 0 0 0 0 0 0 0 0 0 0 0 0 0 0 0 0 0 0 0 0 0 0 0 0
0 0 0 0 0 0 0 0 0 0 0 0 0 0 0 0 0 0 0 0 0 0 0 0 0 0 0 0 0 0 0 0 0 0 0 0 0 0 0 0 0 0 0 0
0 0 0 0 0 0 0 0 0 0 0 0 0 0 0 0 0 0 0 0 0 0 0 0 0 0 0 0 0 0 0 0 0 0 0 0 0 0 0 0 0 0 0 0
0 0 0 0 0 0 0 0 0 0 0 0 0 0 0 0 0 0 0 0 0 0 0 0 0 0 0 0 0 0 0 0 0 0 0 0 0 0 0 0 0 0 0 0
0 0 0 0 0 0 0 0 0 0 0 0 0 0 0 0 0 0 0 0 0 0 0 0 0 0 0 0 0 0 0 0 0 0 0 0 0 0 0 0 0 0 0 0
0 0 0 0 0 0 0 0 0 0 0 0 0 0 0 0 0 0 0 0 0 0 0 0 0 0 0 0 0 0 0 0 0 0 0 0 0 0 0 0 0 0 0 0
0 0 0 0 0 0 0 0 0 0 0 0 0 0 0 0 0 0 0 0 0 0 0 0 0 0 0 0 0 0 0 0 0 0 0 0 0 0 0 0 0 0 0 0
0 0 0 0 0 0 0 0 0 0 0 0 0 0 0 0 0 0 0 0 0 0 0 0 0 0 0 0 0 0 0 0 0 0 0 0 0 0 0 0 0 0 0 0
0 0 0 0 0 0 0 0 0 0 0 0 0 0 0 0 0 0 0 0 0 0 0 0 0 0 0 0 0 0 0 0 0 0 0 0 0 0 0 0 0 0 0 0
0 0 0 0 0 0 0 0 0 0 0 0 0 0 0 0 0 0 0 0 0 0 0 0 0 0 0 0 0 0 0 0 0 0 0 0 0 0 0 0 0 0 0 0
0 0 0 0 0 0 0 0 0 0 0 0 0 0 0 0 0 0 0 0 0 0 0 0 0 0 0 0 0 0 0 0 0 0 0 0 0 0 0 0 0 0 0 2
0 0 0 0 0 0 0 0 0 0 0 0 0 0 0 0 0 0 0 0 0 0 0 0 0 0 0 0 0 0 0 0 0 0 0 0 0 0 0 0 0 0 0 0
0 0 0 0 0 0 0 0 0 0 0 0 0 0 0 0 0 0 0 0 0 0 0 0 0 0 0 0 0 0 0 0 0 0 0 0 0 0 0 0 0 0 0 0
0 0 0 0 0 0 0 0 0 0 0 0 0 0 0 0 0 0 0 0 0 0 0 0 0 0 0 0 0 0 0 0 0 0 0 0 0 0 0 0 0 0 0 0
0 0 0 0 0 0 0 0 0 0 0 0 0 0 0 0 0 0 0 0 0 0 0 0 0 0 0 0 0 0 0 0 0 0 0 0 0 0 0 0 0 0 0 0
0 0 0 0 0 0 0 0 0 0 0 0 0 0 0 0 0 0 0 0 0 0 0 0 0 0 0 0 0 0 0 0 0 0 0 0 0 0 0 0 0 0 0 0
0 0 0 0 0 0 0 0 0 0 0 0 0 0 0 0 0 0 0 0 0 0 0 0 0 0 0 0 0 0 0 0 0 0 0 0 0 0 0 0 0 0 1 2
0 0 0 0 0 0 0 0 0 0 0 0 0 0 0 0 0 0 0 0 0 0 0 0 0 0 0 0 0 0 0 0 0 0 0 0 0 0 0 0 1 1 2 2
0 0 0 0 0 0 0 0 0 0 0 0 0 0 0 0 0 0 0 0 0 0 0 0 0 0 0 0 0 0 0 0 0 0 0 0 0 0 0 1 1 2 2 3
0 0 0 0 0 0 0 0 0 0 0 0 0 0 0 0 0 0 0 0 0 0 0 0 0 0 0 0 0 0 0 0 0 0 0 0 0 2 2 1 1 2 3 2
0 0 0 0 0 0 0 0 0 0 0 0 0 0 0 0 0 0 0 0 0 0 0 0 0 0 0 0 0 0 0 0 0 0 1 0 0 3 2 1 2 3 1 14
0 0 0 0 0 0 0 0 0 0 0 0 0 0 0 0 0 0 0 0 0 0 0 0 0 0 0 0 0 0 0 0 0 0 2 1 2 1 1 2 2 1 8 9
CIN
-0 -0 -0 -0 -0 -0 -0 -0 -0 -0 -0 -0 -0 -0 -0 -0 -0 -0 -0 -0 -0 -0 -0 -0 -0 -0 -0 -0 -0 -0 -0 -0 -0 -0 -0 -0 -0 -0 -0 -0 -0 -0 -0 -0
-0 -0 -0 -0 -0 -0 -0 -0 -0 -0 -0 -0 -0 -0 -0 -0 -0 -0 -0 -0 -0 -0 -0 -0 -0 -0 -0 -0 -0 -0 -0 -0 -0 -0 -0 -0 -0 -0 -0 -0 -0 -0 -0 -0
-0 -0 -0 -0 -0 -0 -0 -0 -0 -0 -0 -0 -0 -0 -0 -0 -0 -0 -0 -0 -0 -0 -0 -0 -0 -0 -0 -0 -0 -0 -0 -0 -0 -0 -0 -0 -0 -0 -0 -0 -0 -0 -0 -0
-0 -0 -0 -0 -0 -0 -0 -0 -0 -0 -0 -0 -0 -0 -0 -0 -0 -0 -0 -0 -0 -0 -0 -0 -0 -0 -0 -0 -0 -0 -0 -0 -0 -0 -0 -0 -0 -0 -0 -0 -0 -0 -0 -0
-0 -0 -0 -0 -0 -0 -0 -0 -0 -0 -0 -0 -0 -0 -0 -0 -0 -0 -0 -0 -0 -0 -0 -0 -0 -0 -0 -0 -0 -0 -0 -0 -0 -0 -0 -0 -0 -0 -0 -0 -0 -0 -0 -0
-0 -0 -0 -0 -0 -0 -0 -0 -0 -0 -0 -0 -0 -0 -0 -0 -0 -0 -0 -0 -0 -0 -0 -0 -0 -0 -0 -0 -0 -0 -0 -0 -0 -0 -0 -0 -0 -0 -0 -0 -0 -0 -0 -0
-0 -0 -0 -0 -0 -0 -0 -0 -0 -0 -0 -0 -0 -0 -0 -0 -0 -0 -0 -0 -0 -0 -0 -0 -0 -0 -0 -0 -0 -0 -0 -0 -0 -0 -0 -0 -0 -0 -0 -0 -0 -0 -0 -0
-0 -0 -0 -0 -0 -0 -0 -0 -0 -0 -0 -0 -0 -0 -0 -0 -0 -0 -0 -0 -0 -0 -0 -0 -0 -0 -0 -0 -0 -0 -0 -0 -0 -0 -0 -0 -0 -0 -0 -0 -0 -0 -0 -0
-0 -0 -0 -0 -0 -0 -0 -0 -0 -0 -0 -0 -0 -0 -0 -0 -0 -0 -0 -0 -0 -0 -0 -0 -0 -0 -0 -0 -0 -0 -0 -0 -0 -0 -0 -0 -0 -0 -0 -0 -0 -0 -0 -0
-0 -0 -0 -0 -0 -0 -0 -0 -0 -0 -0 -0 -0 -0 -0 -0 -0 -0 -0 -0 -0 -0 -0 -0 -0 -0 -0 -0 -0 -0 -0 -0 -0 -0 -0 -0 -0 -0 -0 -0 -0 -0 -0 -0
-0 -0 -0 -0 -0 -0 -0 -0 -0 -0 -0 -0 -0 -0 -0 -0 -0 -0 -0 -0 -0 -0 -0 -0 -0 -0 -0 -0 -0 -0 -0 -0 -0 -0 -0 -0 -0 -0 -0 -0 -0 -0 -0 -0
-0 -0 -0 -0 -0 -0 -0 -0 -0 -0 -0 -0 -0 -0 -0 -0 -0 -0 -0 -0 -0 -0 -0 -0 -0 -0 -0 -0 -0 -0 -0 -0 -0 -0 -0 -0 -0 -0 -0 -0 -0 -0 -0 -0
-0 -0 -0 -0 -0 -0 -0 -0 -0 -0 -0 -0 -0 -0 -0 -0 -0 -0 -0 -0 -0 -0 -0 -0 -0 -0 -0 -0 -0 -0 -0 -0 -0 -0 -0 -0 -0 -0 -0 -0 -0 -0 -0 -0
-0 -0 -0 -0 -0 -0 -0 -0 -0 -0 -0 -0 -0 -0 -0 -0 -0 -0 -0 -0 -0 -0 -0 -0 -0 -0 -0 -0 -0 -0 -0 -0 -0 -0 -0 -0 -0 -0 -0 -0 -0 -0 -0 -0
-0 -0 -0 -0 -0 -0 -0 -0 -0 -0 -0 -0 -0 -0 -0 -0 -0 -0 -0 -0 -0 -0 -0 -0 -0 -0 -0 -0 -0 -0 -0 -0 -0 -0 -0 -0 -0 -0 -0 -0 -0 -0 -0 -2
-0 -0 -0 -0 -0 -0 -0 -0 -0 -0 -0 -0 -0 -0 -0 -0 -0 -0 -0 -0 -0 -0 -0 -0 -0 -0 -0 -0 -0 -0 -0 -0 -0 -0 -0 -0 -0 -0 -0 -0 -0 -0 -0 -0
-0 -0 -0 -0 -0 -0 -0 -0 -0 -0 -0 -0 -0 -0 -0 -0 -0 -0 -0 -0 -0 -0 -0 -0 -0 -0 -0 -0 -0 -0 -0 -0 -0 -0 -0 -0 -0 -0 -0 -0 -1 -0 -0 -0
-0 -0 -0 -0 -0 -0 -0 -0 -0 -0 -0 -0 -0 -0 -0 -0 -0 -0 -0 -0 -0 -0 -0 -0 -0 -0 -0 -0 -0 -0 -0 -0 -0 -0 -0 -0 -0 -0 -0 -0 -0 -0 -0 -0
-0 -0 -0 -0 -0 -0 -0 -0 -0 -0 -0 -0 -0 -0 -0 -0 -0 -0 -0 -0 -0 -0 -0 -0 -0 -0 -0 -0 -0 -0 -0 -0 -0 -0 -0 -0 -0 -0 -0 -0 -0 -0 -0 -0
-0 -0 -0 -0 -0 -0 -0 -0 -0 -0 -0 -0 -0 -0 -0 -0 -0 -0 -0 -0 -0 -0 -0 -0 -0 -0 -0 -0 -0 -0 -0 -0 -0 -0 -0 -0 -0 -0 -0 -0 -0 -0 -0 -0
-0 -0 -0 -0 -0 -0 -0 -0 -0 -0 -0 -0 -0 -0 -0 -0 -0 -0 -0 -0 -0 -0 -0 -0 -0 -0 -0 -0 -0 -0 -0 -0 -0 -0 -0 -0 -0 -0 -0 -0 -0 -0 -0 -0
-0 -0 -0 -0 -0 -0 -0 -0 -0 -0 -0 -0 -0 -0 -0 -0 -0 -0 -0 -0 -0 -0 -0 -0 -0 -0 -0 -0 -0 -0 -0 -0 -0 -0 -0 -0 -0 -2 -0 -0 -0 -0 -0 -0
-0 -0 -0 -0 -0 -0 -0 -0 -0 -0 -0 -0 -0 -0 -0 -0 -0 -0 -0 -0 -0 -0 -0 -0 -0 -0 -0 -0 -0 -0 -0 -0 -0 -0 -0 -0 -0 -0 -0 -0 -0 -0 -0 -0
-0 -0 -0 -0 -0 -0 -0 -0 -0 -0 -0 -0 -0 -0 -0 -0 -0 -0 -0 -0 -0 -0 -0 -0 -0 -0 -0 -0 -0 -0 -0 -0 -0 -0 -0 -0 -0 -0 -0 -0 -0 -0 -0 -0
-0 -0 -0 -0 -0 -0 -0 -0 -0 -0 -0 -0 -0 -0 -0 -0 -0 -0 -0 -0 -0 -0 -0 -0 -0 -0 -0 -0 -0 -0 -0 -0 -0 -0 -2 -0 -0 -0 -0 -0 -0 -0 -0 -0
-0 -0 -0 -0 -0 -0 -0 -0 -0 -0 -0 -0 -0 -0 -0 -0 -0 -0 -0 -0 -0 -0 -0 -0 -0 -0 -0 -0 -0 -0 -0 -0 -0 -7 -2 -0 -0 -0 -0 -0 -0 -0 -0 -0
Wind_Speed
16 18 20 18 18 19 21 23 26 26 25 20 21 24 25 16 12 13 10 7 6 5 5 6 7 7 9 11 11 13 16 19 21 24 25 27 30 32 35 35 36 36 36 38
17 20 19 16 16 18 20 23 27 26 24 21 27 31 28 21 13 11 9 7 5 5 5 5 6 7 9 10 11 14 17 19 22 23 25 27 30 33 35 36 37 36 37 37
17 18 14 16 18 20 22 24 26 28 27 27 30 33 26 21 19 13 11 6 5 3 3 4 5 6 9 10 12 14 17 20 23 24 27 31 33 36 38 39 40 38 39 39
19 17 17 18 21 21 26 21 23 25 29 31 24 35 27 26 22 11 5 5 5 5 4 4 4 8 9 11 13 13 17 20 24 26 31 34 37 41 40 40 39 40 40 41
18 16 17 20 21 20 24 20 23 24 27 29 26 27 25 22 19 13 5 7 7 4 4 5 6 8 10 12 14 15 19 24 26 30 32 35 39 40 40 41 42 42 42 42
19 17 18 19 19 20 18 22 24 23 24 29 23 19 23 19 20 18 10 8 9 7 5 7 9 11 12 14 17 18 23 26 29 31 32 36 39 41 42 43 44 44 43 44
19 20 18 17 20 20 19 21 26 26 24 25 20 19 22 22 22 20 11 7 7 8 5 7 10 12 15 17 18 21 25 29 30 32 35 36 38 40 41 43 45 46 47 46
20 23 17 17 17 18 16 16 20 27 26 24 22 22 21 20 21 22 17 9 7 8 8 10 12 15 17 19 20 24 27 30 31 34 35 37 38 40 42 43 45 46 47 48
18 21 16 16 16 17 17 18 17 22 24 26 23 22 21 19 20 21 19 15 11 12 12 14 15 16 19 21 23 26 28 30 31 34 37 39 40 42 44 45 46 47 46 46
18 21 17 17 17 17 16 15 20 20 26 27 24 24 22 23 21 21 20 19 17 17 17 17 18 19 21 23 24 26 27 30 33 36 38 40 42 43 45 46 47 47 48 46
16 19 19 17 17 18 17 18 18 19 20 26 30 26 22 21 20 21 22 22 21 21 22 22 23 23 23 24 26 27 30 33 36 38 40 43 45 45 44 46 48 47 46 46
16 17 21 19 18 16 16 18 16 21 23 22 25 29 19 19 21 23 25 26 28 27 25 25 24 23 24 26 28 31 32 35 37 39 43 44 45 45 47 47 46 47 48 46
15 17 21 21 19 17 18 17 18 19 22 24 29 29 19 23 26 29 27 26 26 25 26 26 25 25 27 29 31 33 35 38 40 44 45 46 47 48 48 48 48 48 46 45
16 17 18 22 21 19 22 21 19 21 27 29 28 31 27 30 33 27 26 26 27 29 30 30 29 29 31 31 33 36 39 42 44 43 44 47 48 48 47 47 48 48 46 43
17 20 20 22 22 24 25 26 26 27 27 31 32 33 33 29 24 25 25 28 31 34 36 35 32 33 32 34 37 40 43 44 42 44 46 48 47 47 46 47 48 46 43 41
18 23 23 26 24 27 29 29 30 28 26 27 27 27 25 23 23 27 31 33 35 36 35 34 33 34 36 37 41 44 44 43 41 44 46 46 47 46 47 47 46 44 43 41
20 23 26 29 28 30 30 25 25 24 21 23 27 24 24 26 29 32 34 33 36 38 37 37 37 37 38 39 41 42 42 41 43 44 45 46 46 47 47 44 44 44 41 38
20 22 23 28 29 32 21 21 23 21 22 21 22 24 26 28 30 31 31 35 40 42 41 38 35 35 36 37 39 39 40 42 42 44 46 46 45 45 45 45 43 42 38 34
19 18 24 27 27 29 25 20 22 26 27 22 25 26 28 31 33 35 35 35 43 42 38 33 32 34 36 38 38 39 41 40 43 45 44 44 44 44 43 44 42 39 37 33
18 17 20 24 30 32 23 21 20 23 30 24 26 31 35 40 48 43 39 41 43 41 33 31 32 32 37 37 37 39 40 42 44 42 43 44 42 41 41 40 39 42 30 27
19 21 22 23 27 28 20 20 19 30 31 26 30 35 37 39 37 41 43 42 40 34 30 29 32 35 36 35 37 40 41 43 40 40 42 40 40 40 39 36 37 39 26 25
19 22 23 22 26 33 15 20 26 26 26 30 32 35 37 37 39 40 41 39 36 30 29 30 33 34 34 34 37 40 41 39 39 40 40 40 39 38 37 33 30 39 26 30
22 17 23 19 24 22 19 23 23 25 28 30 34 35 36 38 39 40 40 37 30 28 29 30 32 33 34 35 38 39 37 39 40 41 42 39 38 37 33 28 25 27 31 27
19 17 22 25 23 21 21 22 24 25 28 30 32 35 35 38 39 38 37 32 28 28 29 30 32 34 35 36 36 33 37 40 40 41 40 38 37 30 34 31 30 30 20 14
22 22 25 26 25 21 21 22 23 27 31 35 35 35 37 38 38 35 34 28 27 28 30 30 32 33 35 35 35 36 37 40 41 40 38 38 31 33 28 29 12 11 11 28
22 24 26 30 21 21 20 23 26 30 32 33 36 38 37 35 37 32 30 28 28 29 29 30 31 32 33 35 35 36 38 39 40 38 38 35 40 34 12 18 16 11 19 33
Wind_Direction
281 278 281 288 292 296 299 299 298 304 312 310 305 307 312 312 307 303 296 280 291 302 327 335 345 351 350 351 353 351 348 346 345 343 342 341 338 338 337 337 335 334 333 331
283 280 288 296 302 301 301 300 301 308 315 314 309 306 310 311 291 278 276 270 266 303 317 328 339 340 339 339 342 342 340 342 343 342 341 341 338 336 335 335 334 333 331 330
285 291 299 298 298 300 302 302 305 307 312 312 311 309 320 327 322 308 294 269 276 262 289 311 328 337 338 335 336 337 340 340 340 340 338 334 333 333 331 332 331 332 330 329
287 295 296 298 297 303 298 310 311 312 310 307 323 306 320 322 325 329 298 285 269 272 284 309 323 329 333 333 337 338 339 339 337 335 332 330 329 327 329 329 331 329 329 328
290 298 299 299 303 308 306 318 314 315 312 312 316 310 323 331 330 334 321 308 307 279 256 290 307 322 330 331 332 333 333 332 333 332 331 328 326 327 328 328 327 327 327 327
294 307 308 308 314 316 320 315 316 317 316 308 320 319 324 329 333 334 328 321 320 317 297 302 312 323 328 328 326 327 329 329 330 331 331 328 328 327 327 327 326 326 325 325
298 297 310 316 312 316 317 315 308 309 311 311 327 323 318 326 331 335 337 328 324 323 315 321 323 323 325 324 324 326 327 327 329 330 329 329 329 328 327 327 326 325 324 324
298 297 308 316 317 320 321 320 312 307 310 317 323 318 324 334 334 334 340 342 338 333 327 318 320 321 322 323 323 325 326 327 329 330 330 330 330 329 327 326 325 324 323 322
304 303 319 321 325 324 322 315 325 315 316 313 316 322 329 338 339 341 344 344 335 329 325 322 321 321 323 323 324 325 328 329 331 331 331 331 330 329 327 326 325 324 324 323
312 307 315 319 323 323 321 333 319 319 313 312 317 319 321 330 334 340 342 339 335 330 326 323 322 322 326 328 330 331 332 332 332 333 332 331 330 328 327 326 325 324 323 323
318 310 315 323 320 320 322 315 321 323 318 313 312 318 331 333 335 334 336 335 332 328 326 325 326 329 331 333 333 333 333 332 333 333 332 330 329 328 327 326 325 324 324 323
325 325 311 317 327 332 328 325 323 315 317 318 317 314 333 340 343 337 334 334 334 335 332 331 331 332 332 333 333 333 333 333 333 332 331 330 330 329 327 327 326 325 323 322
329 323 316 320 325 329 324 326 323 321 320 312 311 316 327 332 333 333 333 336 338 339 339 339 340 337 335 333 333 333 333 332 332 332 331 330 329 328 327 326 326 325 324 322
331 324 319 315 321 327 319 320 322 317 312 312 310 313 319 320 325 332 336 336 336 336 336 335 333 333 332 332 332 332 332 332 331 331 331 329 329 329 327 327 327 326 324 323
329 320 321 319 319 317 315 314 313 309 310 308 314 314 319 326 333 336 339 336 334 332 331 331 332 331 332 332 332 332 331 331 332 331 330 329 330 329 329 328 327 328 327 325
329 319 320 317 320 319 315 315 315 314 313 312 317 321 334 340 342 337 333 332 333 333 335 335 333 331 330 331 331 332 332 333 333 331 331 331 331 331 330 330 330 330 329 327
325 322 320 314 320 319 315 323 322 325 331 325 320 326 334 332 331 330 331 333 332 332 332 330 328 329 330 333 334 334 334 335 333 333 333 333 333 332 332 332 332 331 330 331
326 324 323 318 322 314 329 336 336 335 334 335 333 331 330 329 331 332 333 330 329 328 328 328 330 332 334 335 336 337 337 336 336 335 334 335 334 334 334 334 333 334 334 333
330 329 322 320 320 320 327 334 333 329 326 334 332 332 331 330 329 328 332 330 329 330 331 332 334 335 337 337 339 339 338 339 337 337 337 337 337 336 336 336 336 336 336 337
338 337 327 324 318 316 330 336 342 339 321 334 332 329 327 326 319 324 330 329 329 330 333 334 336 339 338 340 342 341 340 339 339 340 340 339 340 339 338 339 339 335 340 339
331 330 322 321 320 322 329 334 348 325 326 334 332 329 328 326 326 326 328 329 332 334 336 339 339 339 340 343 343 341 340 340 342 342 341 342 342 342 342 343 342 339 345 345
328 327 326 330 324 321 344 341 325 330 335 334 333 331 329 329 329 330 331 332 334 336 338 340 340 340 343 345 343 342 342 344 344 344 344 344 345 346 346 348 349 341 353 350
325 328 329 325 326 336 339 332 339 338 335 336 334 334 332 331 332 333 334 335 337 339 340 341 341 342 344 344 344 343 346 346 346 345 346 347 348 350 354 355 357 358 356 359
332 331 322 325 329 328 336 340 341 342 339 338 337 335 335 333 334 334 337 338 338 340 341 342 342 342 343 344 345 349 346 346 348 347 349 350 351 358 357 1 2 1 4 338
327 329 323 320 327 331 336 338 338 339 338 336 338 338 337 336 337 338 338 339 339 340 340 342 343 343 343 345 346 347 348 347 347 350 352 351 358 359 3 4 328 326 339 307
325 322 321 320 329 329 333 338 340 337 339 341 340 339 340 340 339 340 341 340 339 339 342 343 344 344 345 344 346 347 349 349 350 352 353 354 341 358 339 300 305 357 300 318